Simultaneous Nadir Overpasses (SNOs) Predictions

Prediction of SNOs between GOES-14 and AQUA Satellite Orbit:

Table of predicted SNOs for the next 14.0 days since TLE Epoch: 10/3/2025
Index Date Time (GOES-14) GOES-14 Lat,Lon AQUA Lat,Lon Distance(km) Time Diff (sec)
1 10/03/2025 22:07:10 0.52,-108.39 0.54,-108.34 5.11 80
2 10/06/2025 10:05:22 -0.50,-108.46 -0.62,-107.84 70.20 80
3 10/06/2025 22:27:11 0.40,-108.40 -0.46,-112.45 460.82 80
4 10/08/2025 22:03:42 0.46,-108.41 0.70,-107.36 119.26 80
5 10/09/2025 10:25:21 -0.36,-108.47 0.40,-111.93 394.06 80
6 10/11/2025 10:01:51 -0.43,-108.47 -0.79,-106.84 185.53 80
7 10/11/2025 22:23:38 0.33,-108.40 -0.35,-111.43 345.72 80
8 10/13/2025 22:00:06 0.39,-108.40 0.82,-106.33 234.88 80
9 10/14/2025 10:21:45 -0.30,-108.47 0.24,-110.91 277.61 80
10 10/16/2025 09:58:11 -0.37,-108.47 -0.92,-105.80 303.71 80
11 10/16/2025 22:19:58 0.26,-108.40 -0.17,-110.40 227.19 80
